STARLINK-36966, 68044

Orbit data source: Space-Track

STARLINK-36966, 68044 is a payload satellite owned by SpaceX/Seattle (US) in LEO that was launched on Mon, 02 Mar 2026 UTC via an FALCON 9 launch vehicle from the Air Force Eastern Test Range (AFETR). Payload-class satellites include a variety of spacecraft equipped with specific instruments for various scientific and technological missions. These include communications satellites like Starlink; space stations such as the ISS; scientific satellites like the Hubble; Earth observation satellites from companies like Planet Labs, Umbra, and HawkEye 360; GPS; miniature CubeSats for education and research; and military/defense satellites.

Loading next visibility...
Identifier
68044, 2026-041E
Orbit
LEO
Country
Flag of USUS
Related business
Manufacturer
SpaceX/Seattle
Mission
Operational Commercial Communications
Bus & Motor
STARLINK V2MO, Unknown motor
Mass
575 kg wet, ~530 kg dry
Launch date (UTC)
2026-03-02 (2 months ago)
Launch vehicle
FALCON 9
Launch site
Air Force Eastern Test Range (AFETR)
Object type
Payload
Rocket body
Debris
Shape & HBR
Box + 2 Pan, 17.7 m
Radar Cross Section
36.964 m²

Expand to show TLE details & history
Last TLE update: 23 hours ago

TLE from 23 hours ago
0 STARLINK-36966
1 68044U 26041E   26118.44794117  .00443713  00000-0  97489-2 0  9991
2 68044  53.1608 178.2570 0000569 336.1308  23.9671 15.41781580  9019
Epoch: 2026-04-28T10:45Z
TLE epoch observation values (Epoch: 2026-04-28T10:45:02.117Z)
Latitude
-0.00003°
Longitude
160.57504°
Altitude
441.401 km
Speed
7.649 km/s
True Right ascension
11h 53m 01s
True Declination
0° 00' 00"
Sunlit
Object was in full shadow at epoch
Visualization orbit readout
Latitude
Unknown
Longitude
Unknown
Altitude
Unknown
Speed
Unknown
Apparent Right ascension
Unknown
Apparent Declination
Unknown
Sunlit
N/A
Visualization observer readout
Local Sidereal Time
17:06:12
Azimuth
Unknown
Elevation
Unknown
Doppler factor
Unknown
Orbital elements
Apogee altitude
441.497 km
Perigee altitude
440.721 km
Semi-major axis
6,819.246 km
Eccentricity
0.00006
Inclination
53.1608°
RAAN
178.257°
Arg. of periapsis
336.1308°
True anomaly
23.96975°
Mean anomaly
23.9671°
Eccentric anomaly
23.96842°
Mean motion
3.85424 °/min
Orbital period
93.4 mins
BSTAR
0.0097489
Loading maneuver chart data...
Computing Atmospheric mass density...
Loading historical data...
Loading historical data...
Loading historical data...
Loading historical data...
Loading historical data...
Loading historical data...
Loading historical data...

Documentation

Showing up to 5 results
|